Location: Jarosław
(50.0191°N, 22.6835°E)
Time: 16:51:44
(UTC+02:00)

ISS - Pass Details

Date: 25 March 2019
Orbit: 408 x 410 km, 51.6° (Epoch: 25 April)

Event Time Altitude Azimuth Distance (km) Brightness Sun altitude
Rises 18:37:51 0° 232° (SW) 2,329 0.6 -8.5°
Reaches altitude 10° 18:39:58 10° 226° (SW) 1,470 -0.5 -8.8°
Maximum altitude 18:43:08 45° 152° (SSE) 568 -3.4 -9.3°
Enters shadow 18:45:57 13° 80° (E) 1,331 -1.8 -9.8°
